map of SVG home
SVG - Airport
Location
City:  Stavanger, Norway
Name:Sola
ICAO:ENZV
IATA:SVG

Details
Type:Airport (Aerodrome, Airfield)
Use:Public/Civil, International (customs port of entry)
Latitude:5852'36"N (58.876778)
Longitude:538'16"E (5.637856)
Datum:WGS 1984
Elevation:29 ft (9 m)
Variation:1.04E (WMM2015 magnetic declination)
0.17 annual change
Runways:2
Longest:8385 × 197 ft (2556 × 60 m), paved

Time
Time Zone:UTC+1 (DST+2)
Local Time:

Weather
METAR:ENZV 191950Z 19008KT 9999 FEW020TCU SCT022 BKN030 13/11 Q1004
TAF:ENZV 191700Z 1918/2018 22012KT 9999 -SHRA SCT020TCU BKN030
TEMPO 1918/2013 4000 SHRA BKN014CB PROB30
TEMPO 2003/2006 3000 TSRA BKN008CB
BECMG 2010/2012 30012KT

Related Locations
Nearby:
Farthest:CHT: 11385 mi / 18322 km
Waitangi [Tuuta], CIT, NZ

Find:

   beyond  
but within

Other Information
Maps:
NOTAMs:
Links:
Sources:

  
flag of Norway   

Airport Diagram

Airport diagram for SVG

Larger airport diagram (OBSOLETE) from NGA

Sectional Chart

Flight Planning
at skyvector.com

Satellite Image

Google Maps Satellite view

 

Copyright © 2004-2017 Karl L. Swartz. All rights reserved.
The Great Circle Mapper name and logo are trademarks of the Great Circle Mapper.
All other trademarks mentioned herein belong to their respective owners.
Please see credits for attibutions and further copyright information.

  Follow gcmap on Facebook Follow gcmap on Twitter Follow gcmap on Google+ GCmap on LinkedIn

hCard Microformat

Geo Microformat